Time,TemperatureF,DewpointF,PressureIn,WindDirection,WindDirectionDegrees,WindSpeedMPH,WindSpeedGustMPH,Humidity,HourlyPrecipIn,Conditions,Clouds,dailyrainin,SoftwareType,DateUTC
2014-03-02 00:02:00,46.0,45.0,29.93,ESE,112,3.0,6.0,96,0.00,,,0.00,Rainwise IP-100,2014-03-02 08:02:00,
2014-03-02 00:07:00,46.0,45.0,29.92,SE,135,4.0,6.0,96,0.00,,,0.00,Rainwise IP-100,2014-03-02 08:07:00,
2014-03-02 00:12:00,46.0,45.0,29.93,SE,135,4.0,6.0,96,0.00,,,0.00,Rainwise IP-100,2014-03-02 08:12:00,
2014-03-02 00:17:00,46.0,44.0,29.93,SSE,157,2.0,8.0,95,0.00,,,0.00,Rainwise IP-100,2014-03-02 08:17:00,
2014-03-02 00:22:00,46.0,44.0,29.93,SSE,157,4.0,7.0,95,0.00,,,0.00,Rainwise IP-100,2014-03-02 08:22:00,
2014-03-02 00:27:00,46.0,44.0,29.93,ESE,112,4.0,5.0,95,0.00,,,0.00,Rainwise IP-100,2014-03-02 08:27:00,
2014-03-02 00:32:00,46.0,44.0,29.93,SSE,157,3.0,6.0,94,0.00,,,0.00,Rainwise IP-100,2014-03-02 08:32:00,
2014-03-02 00:37:00,46.0,44.0,29.93,SSE,157,3.0,7.0,94,0.00,,,0.00,Rainwise IP-100,2014-03-02 08:37:00,
2014-03-02 00:42:00,46.0,44.0,29.93,SE,135,2.0,6.0,94,0.00,,,0.00,Rainwise IP-100,2014-03-02 08:42:00,
2014-03-02 00:47:00,46.0,44.0,29.94,SE,135,3.0,5.0,94,0.00,,,0.00,Rainwise IP-100,2014-03-02 08:47:00,
2014-03-02 00:52:00,46.0,44.0,29.94,SE,135,1.0,4.0,95,0.00,,,0.00,Rainwise IP-100,2014-03-02 08:52:00,
2014-03-02 00:57:00,46.0,44.0,29.94,SSE,157,3.0,3.0,95,0.00,,,0.00,Rainwise IP-100,2014-03-02 08:57:00,
2014-03-02 01:02:00,46.0,44.0,29.94,SSE,157,4.0,5.0,95,0.00,,,0.00,Rainwise IP-100,2014-03-02 09:02:00,
2014-03-02 01:07:00,46.0,44.0,29.94,ESE,112,3.0,4.0,95,0.00,,,0.00,Rainwise IP-100,2014-03-02 09:07:00,
2014-03-02 01:12:00,46.0,44.0,29.95,SE,135,2.0,4.0,95,0.00,,,0.00,Rainwise IP-100,2014-03-02 09:12:00,
2014-03-02 01:17:00,46.0,44.0,29.95,SE,135,1.0,3.0,95,0.00,,,0.00,Rainwise IP-100,2014-03-02 09:17:00,
2014-03-02 01:22:00,46.0,44.0,29.95,SE,135,2.0,3.0,95,0.00,,,0.00,Rainwise IP-100,2014-03-02 09:22:00,
2014-03-02 01:27:00,45.0,44.0,29.95,SSE,157,0.0,3.0,95,0.00,,,0.00,Rainwise IP-100,2014-03-02 09:27:00,
2014-03-02 01:32:00,45.0,44.0,29.95,SSE,157,1.0,3.0,96,0.00,,,0.00,Rainwise IP-100,2014-03-02 09:32:00,
2014-03-02 01:37:00,45.0,44.0,29.96,ESE,112,1.0,3.0,96,0.00,,,0.00,Rainwise IP-100,2014-03-02 09:37:00,
2014-03-02 01:42:00,45.0,44.0,29.95,ESE,112,1.0,3.0,96,0.00,,,0.00,Rainwise IP-100,2014-03-02 09:42:00,
2014-03-02 01:47:00,45.0,44.0,29.96,ESE,112,2.0,3.0,96,0.00,,,0.00,Rainwise IP-100,2014-03-02 09:47:00,
2014-03-02 01:52:00,46.0,45.0,29.96,SE,135,3.0,4.0,96,0.00,,,0.00,Rainwise IP-100,2014-03-02 09:52:00,
2014-03-02 01:57:00,46.0,45.0,29.96,ESE,112,2.0,3.0,96,0.00,,,0.00,Rainwise IP-100,2014-03-02 09:57:00,
2014-03-02 02:02:00,46.0,45.0,29.96,SSE,157,4.0,4.0,96,0.00,,,0.00,Rainwise IP-100,2014-03-02 10:02:00,
2014-03-02 02:07:00,46.0,45.0,29.96,SE,135,0.0,4.0,96,0.00,,,0.00,Rainwise IP-100,2014-03-02 10:07:00,
2014-03-02 02:12:00,46.0,45.0,29.96,SE,135,2.0,3.0,96,0.00,,,0.00,Rainwise IP-100,2014-03-02 10:12:00,
2014-03-02 02:17:00,46.0,45.0,29.96,SE,135,2.0,3.0,96,0.00,,,0.00,Rainwise IP-100,2014-03-02 10:17:00,
2014-03-02 02:22:00,46.0,45.0,29.96,SE,135,2.0,3.0,96,0.00,,,0.00,Rainwise IP-100,2014-03-02 10:22:00,
2014-03-02 02:27:00,46.0,45.0,29.96,East,90,2.0,3.0,96,0.00,,,0.00,Rainwise IP-100,2014-03-02 10:27:00,
2014-03-02 02:32:00,46.0,45.0,29.97,East,90,1.0,3.0,96,0.00,,,0.00,Rainwise IP-100,2014-03-02 10:32:00,
2014-03-02 02:37:00,46.0,45.0,29.97,East,90,1.0,2.0,96,0.00,,,0.00,Rainwise IP-100,2014-03-02 10:37:00,
2014-03-02 02:42:00,46.0,45.0,29.97,East,90,0.0,2.0,96,0.00,,,0.00,Rainwise IP-100,2014-03-02 10:42:00,
2014-03-02 02:47:00,46.0,45.0,29.98,East,90,1.0,1.0,96,0.00,,,0.00,Rainwise IP-100,2014-03-02 10:47:00,
2014-03-02 02:52:00,47.0,46.0,29.97,SSE,157,0.0,3.0,96,0.00,,,0.00,Rainwise IP-100,2014-03-02 10:52:00,
2014-03-02 02:57:00,47.0,46.0,29.97,ESE,112,1.0,1.0,96,0.00,,,0.00,Rainwise IP-100,2014-03-02 10:57:00,
2014-03-02 03:02:00,47.0,46.0,29.97,East,90,2.0,3.0,96,0.00,,,0.00,Rainwise IP-100,2014-03-02 11:02:00,
2014-03-02 03:07:00,47.0,46.0,29.98,East,90,2.0,4.0,96,0.00,,,0.00,Rainwise IP-100,2014-03-02 11:07:00,
2014-03-02 03:12:00,47.0,46.0,29.97,East,90,2.0,4.0,96,0.00,,,0.00,Rainwise IP-100,2014-03-02 11:12:00,
2014-03-02 03:17:00,47.0,46.0,29.97,East,90,2.0,4.0,96,0.00,,,0.00,Rainwise IP-100,2014-03-02 11:17:00,
2014-03-02 03:22:00,47.0,46.0,29.98,East,90,2.0,4.0,96,0.00,,,0.00,Rainwise IP-100,2014-03-02 11:22:00,
2014-03-02 03:27:00,47.0,46.0,29.98,East,90,4.0,5.0,96,0.00,,,0.00,Rainwise IP-100,2014-03-02 11:27:00,
2014-03-02 03:32:00,47.0,46.0,29.97,ENE,67,3.0,5.0,96,0.00,,,0.00,Rainwise IP-100,2014-03-02 11:32:00,
2014-03-02 03:37:00,47.0,46.0,29.98,ENE,67,5.0,5.0,96,0.00,,,0.00,Rainwise IP-100,2014-03-02 11:37:00,
2014-03-02 03:42:00,47.0,46.0,29.98,ENE,67,3.0,5.0,96,0.00,,,0.00,Rainwise IP-100,2014-03-02 11:42:00,
2014-03-02 03:47:00,47.0,46.0,29.98,East,90,3.0,4.0,97,0.00,,,0.00,Rainwise IP-100,2014-03-02 11:47:00,
2014-03-02 03:52:00,47.0,46.0,29.98,East,90,2.0,3.0,97,0.00,,,0.00,Rainwise IP-100,2014-03-02 11:52:00,
2014-03-02 03:57:00,47.0,46.0,29.98,East,90,2.0,3.0,97,0.00,,,0.00,Rainwise IP-100,2014-03-02 11:57:00,
2014-03-02 04:02:00,47.0,46.0,29.98,ESE,112,1.0,3.0,97,0.00,,,0.00,Rainwise IP-100,2014-03-02 12:02:00,
2014-03-02 04:07:00,47.0,46.0,29.99,ENE,67,3.0,4.0,97,0.00,,,0.00,Rainwise IP-100,2014-03-02 12:07:00,
2014-03-02 04:12:00,47.0,46.0,29.99,SE,135,2.0,3.0,96,0.00,,,0.00,Rainwise IP-100,2014-03-02 12:12:00,
2014-03-02 04:17:00,47.0,46.0,29.99,SE,135,0.0,2.0,96,0.00,,,0.00,Rainwise IP-100,2014-03-02 12:17:00,
2014-03-02 04:22:00,47.0,46.0,29.99,SE,135,1.0,3.0,96,0.00,,,0.00,Rainwise IP-100,2014-03-02 12:22:00,
2014-03-02 04:27:00,47.0,46.0,29.99,SE,135,2.0,3.0,96,0.00,,,0.00,Rainwise IP-100,2014-03-02 12:27:00,
2014-03-02 04:32:00,47.0,46.0,29.99,ESE,112,1.0,2.0,96,0.00,,,0.00,Rainwise IP-100,2014-03-02 12:32:00,
2014-03-02 04:37:00,47.0,46.0,30.00,ESE,112,1.0,3.0,96,0.00,,,0.00,Rainwise IP-100,2014-03-02 12:37:00,
2014-03-02 04:42:00,47.0,46.0,29.99,ESE,112,1.0,4.0,96,0.00,,,0.00,Rainwise IP-100,2014-03-02 12:42:00,
2014-03-02 04:47:00,47.0,45.0,29.99,ESE,112,1.0,4.0,95,0.00,,,0.00,Rainwise IP-100,2014-03-02 12:47:00,
2014-03-02 04:52:00,47.0,45.0,30.00,ESE,112,1.0,3.0,95,0.00,,,0.00,Rainwise IP-100,2014-03-02 12:52:00,
2014-03-02 04:57:00,47.0,45.0,29.99,East,90,3.0,4.0,95,0.00,,,0.00,Rainwise IP-100,2014-03-02 12:57:00,
2014-03-02 05:02:00,47.0,45.0,29.99,East,90,2.0,4.0,95,0.00,,,0.00,Rainwise IP-100,2014-03-02 13:02:00,
2014-03-02 05:07:00,47.0,45.0,29.99,ESE,112,2.0,6.0,95,0.00,,,0.00,Rainwise IP-100,2014-03-02 13:07:00,
2014-03-02 05:12:00,47.0,45.0,29.99,ESE,112,2.0,6.0,95,0.00,,,0.00,Rainwise IP-100,2014-03-02 13:12:00,
2014-03-02 05:17:00,47.0,45.0,29.99,ESE,112,2.0,3.0,95,0.00,,,0.00,Rainwise IP-100,2014-03-02 13:17:00,
2014-03-02 05:22:00,47.0,45.0,29.99,ESE,112,2.0,5.0,95,0.00,,,0.00,Rainwise IP-100,2014-03-02 13:22:00,
2014-03-02 05:27:00,47.0,45.0,29.99,ESE,112,2.0,4.0,95,0.00,,,0.00,Rainwise IP-100,2014-03-02 13:27:00,
2014-03-02 05:32:00,47.0,45.0,29.98,ESE,112,3.0,4.0,95,0.00,,,0.00,Rainwise IP-100,2014-03-02 13:32:00,
2014-03-02 05:37:00,47.0,45.0,29.98,SSE,157,1.0,4.0,95,0.00,,,0.00,Rainwise IP-100,2014-03-02 13:37:00,
2014-03-02 05:42:00,47.0,45.0,29.98,SSE,157,2.0,3.0,95,0.00,,,0.00,Rainwise IP-100,2014-03-02 13:42:00,
2014-03-02 05:47:00,47.0,45.0,29.98,SSE,157,3.0,3.0,95,0.00,,,0.00,Rainwise IP-100,2014-03-02 13:47:00,
2014-03-02 05:52:00,47.0,45.0,29.98,SSE,157,0.0,3.0,95,0.00,,,0.00,Rainwise IP-100,2014-03-02 13:52:00,
2014-03-02 05:57:00,46.0,44.0,29.98,SSE,157,2.0,3.0,95,0.00,,,0.00,Rainwise IP-100,2014-03-02 13:57:00,
2014-03-02 06:02:00,46.0,44.0,29.99,SSE,157,2.0,3.0,95,0.00,,,0.00,Rainwise IP-100,2014-03-02 14:02:00,
2014-03-02 06:07:00,46.0,44.0,29.99,SSE,157,0.0,3.0,95,0.00,,,0.00,Rainwise IP-100,2014-03-02 14:07:00,
2014-03-02 06:12:00,46.0,45.0,29.99,SSE,157,1.0,2.0,96,0.00,,,0.00,Rainwise IP-100,2014-03-02 14:12:00,
2014-03-02 06:17:00,46.0,45.0,29.99,SE,135,3.0,3.0,96,0.00,,,0.00,Rainwise IP-100,2014-03-02 14:17:00,
2014-03-02 06:22:00,46.0,45.0,29.99,SE,135,3.0,5.0,97,0.00,,,0.00,Rainwise IP-100,2014-03-02 14:22:00,
2014-03-02 06:27:00,46.0,45.0,29.99,SE,135,4.0,6.0,97,0.00,,,0.00,Rainwise IP-100,2014-03-02 14:27:00,
2014-03-02 06:32:00,46.0,45.0,29.99,ESE,112,3.0,6.0,97,0.00,,,0.00,Rainwise IP-100,2014-03-02 14:32:00,
2014-03-02 06:37:00,46.0,45.0,29.99,SE,135,0.0,5.0,96,0.00,,,0.00,Rainwise IP-100,2014-03-02 14:37:00,
2014-03-02 06:42:00,47.0,46.0,29.99,SSE,157,1.0,6.0,96,0.00,,,0.00,Rainwise IP-100,2014-03-02 14:42:00,
2014-03-02 06:47:00,47.0,46.0,29.99,ESE,112,3.0,3.0,96,0.00,,,0.00,Rainwise IP-100,2014-03-02 14:47:00,
2014-03-02 06:52:00,47.0,46.0,29.99,SSE,157,4.0,4.0,96,0.00,,,0.00,Rainwise IP-100,2014-03-02 14:52:00,
2014-03-02 06:57:00,47.0,46.0,29.99,SE,135,0.0,4.0,96,0.00,,,0.00,Rainwise IP-100,2014-03-02 14:57:00,
2014-03-02 07:02:00,47.0,46.0,30.01,SE,135,0.0,2.0,97,0.00,,,0.00,Rainwise IP-100,2014-03-02 15:02:00,
2014-03-02 07:07:00,47.0,46.0,30.01,SSE,157,0.0,2.0,97,0.00,,,0.00,Rainwise IP-100,2014-03-02 15:07:00,
2014-03-02 07:12:00,47.0,46.0,30.01,SSE,157,3.0,3.0,97,0.00,,,0.00,Rainwise IP-100,2014-03-02 15:12:00,
2014-03-02 07:17:00,47.0,46.0,30.02,SE,135,1.0,3.0,97,0.00,,,0.00,Rainwise IP-100,2014-03-02 15:17:00,
2014-03-02 07:22:00,47.0,46.0,30.03,SE,135,0.0,2.0,97,0.00,,,0.00,Rainwise IP-100,2014-03-02 15:22:00,
2014-03-02 07:23:00,47.0,46.0,30.03,SE,135,0.0,1.0,97,0.00,,,0.00,Rainwise IP-100,2014-03-02 15:23:00,
2014-03-02 07:28:00,47.0,46.0,30.03,SE,135,0.0,0.0,97,0.00,,,0.00,Rainwise IP-100,2014-03-02 15:28:00,
2014-03-02 07:33:00,47.0,46.0,30.04,WSW,247,0.0,4.0,97,0.00,,,0.00,Rainwise IP-100,2014-03-02 15:33:00,
2014-03-02 07:38:00,47.0,46.0,30.04,SSW,202,0.0,2.0,97,0.00,,,0.00,Rainwise IP-100,2014-03-02 15:38:00,
2014-03-02 07:43:00,48.0,47.0,30.04,SSE,157,0.0,2.0,97,0.00,,,0.00,Rainwise IP-100,2014-03-02 15:43:00,
2014-03-02 07:48:00,48.0,47.0,30.05,SE,135,0.0,4.0,97,0.00,,,0.00,Rainwise IP-100,2014-03-02 15:48:00,
2014-03-02 07:53:00,49.0,48.0,30.06,ENE,67,3.0,4.0,96,0.00,,,0.00,Rainwise IP-100,2014-03-02 15:53:00,
2014-03-02 07:58:00,49.0,48.0,30.06,East,90,1.0,4.0,96,0.00,,,0.00,Rainwise IP-100,2014-03-02 15:58:00,
2014-03-02 08:03:00,49.0,47.0,30.07,NNW,337,0.0,4.0,95,0.00,,,0.00,Rainwise IP-100,2014-03-02 16:03:00,
2014-03-02 08:08:00,50.0,48.0,30.07,NE,45,0.0,4.0,94,0.00,,,0.00,Rainwise IP-100,2014-03-02 16:08:00,
2014-03-02 08:13:00,50.0,47.0,30.07,NNW,337,0.0,0.0,93,0.00,,,0.00,Rainwise IP-100,2014-03-02 16:13:00,
2014-03-02 08:18:00,50.0,47.0,30.07,NNW,337,0.0,0.0,93,0.00,,,0.00,Rainwise IP-100,2014-03-02 16:18:00,
2014-03-02 08:23:00,51.0,49.0,30.08,NNW,337,0.0,0.0,92,0.00,,,0.00,Rainwise IP-100,2014-03-02 16:23:00,
2014-03-02 08:28:00,50.0,47.0,30.08,NE,45,2.0,4.0,92,0.00,,,0.00,Rainwise IP-100,2014-03-02 16:28:00,
2014-03-02 08:33:00,50.0,47.0,30.08,NNW,337,0.0,4.0,93,0.00,,,0.00,Rainwise IP-100,2014-03-02 16:33:00,
2014-03-02 08:38:00,49.0,47.0,30.08,NNE,22,2.0,4.0,93,0.00,,,0.00,Rainwise IP-100,2014-03-02 16:38:00,
2014-03-02 08:43:00,49.0,47.0,30.08,NE,45,1.0,4.0,93,0.00,,,0.00,Rainwise IP-100,2014-03-02 16:43:00,
2014-03-02 08:48:00,49.0,47.0,30.08,NE,45,2.0,4.0,92,0.00,,,0.00,Rainwise IP-100,2014-03-02 16:48:00,
2014-03-02 08:53:00,49.0,47.0,30.08,NE,45,1.0,3.0,92,0.00,,,0.00,Rainwise IP-100,2014-03-02 16:53:00,
2014-03-02 08:58:00,50.0,47.0,30.08,NE,45,0.0,4.0,91,0.00,,,0.00,Rainwise IP-100,2014-03-02 16:58:00,
2014-03-02 09:03:00,50.0,47.0,30.08,NE,45,2.0,3.0,91,0.00,,,0.00,Rainwise IP-100,2014-03-02 17:03:00,
2014-03-02 09:08:00,50.0,47.0,30.09,NNE,22,2.0,2.0,91,0.00,,,0.00,Rainwise IP-100,2014-03-02 17:08:00,
2014-03-02 09:13:00,50.0,47.0,30.09,NNE,22,3.0,4.0,90,0.00,,,0.00,Rainwise IP-100,2014-03-02 17:13:00,
2014-03-02 09:18:00,50.0,47.0,30.09,NE,45,3.0,4.0,90,0.00,,,0.00,Rainwise IP-100,2014-03-02 17:18:00,
2014-03-02 09:23:00,50.0,47.0,30.09,NNE,22,0.0,3.0,89,0.00,,,0.00,Rainwise IP-100,2014-03-02 17:23:00,
2014-03-02 09:28:00,51.0,48.0,30.09,NNE,22,1.0,4.0,89,0.00,,,0.00,Rainwise IP-100,2014-03-02 17:28:00,
2014-03-02 09:33:00,51.0,48.0,30.09,ENE,67,2.0,3.0,89,0.00,,,0.00,Rainwise IP-100,2014-03-02 17:33:00,
2014-03-02 09:38:00,51.0,48.0,30.09,SE,135,3.0,4.0,89,0.00,,,0.00,Rainwise IP-100,2014-03-02 17:38:00,
2014-03-02 09:43:00,52.0,49.0,30.09,ESE,112,0.0,4.0,89,0.00,,,0.00,Rainwise IP-100,2014-03-02 17:43:00,
2014-03-02 09:48:00,52.0,49.0,30.09,SE,135,4.0,5.0,89,0.00,,,0.00,Rainwise IP-100,2014-03-02 17:48:00,
2014-03-02 09:53:00,53.0,49.0,30.09,SE,135,5.0,5.0,87,0.00,,,0.00,Rainwise IP-100,2014-03-02 17:53:00,
2014-03-02 09:58:00,53.0,48.0,30.09,SE,135,0.0,5.0,86,0.00,,,0.00,Rainwise IP-100,2014-03-02 17:58:00,
2014-03-02 10:03:00,53.0,48.0,30.09,ESE,112,2.0,7.0,84,0.00,,,0.00,Rainwise IP-100,2014-03-02 18:03:00,
2014-03-02 10:08:00,53.0,48.0,30.09,SE,135,0.0,5.0,84,0.00,,,0.00,Rainwise IP-100,2014-03-02 18:08:00,
2014-03-02 10:13:00,53.0,48.0,30.09,East,90,0.0,5.0,84,0.00,,,0.00,Rainwise IP-100,2014-03-02 18:13:00,
2014-03-02 10:18:00,54.0,49.0,30.09,SE,135,2.0,4.0,83,0.00,,,0.00,Rainwise IP-100,2014-03-02 18:18:00,
2014-03-02 10:23:00,54.0,49.0,30.09,SE,135,1.0,4.0,83,0.00,,,0.00,Rainwise IP-100,2014-03-02 18:23:00,
2014-03-02 10:28:00,55.0,50.0,30.09,SSE,157,0.0,5.0,82,0.00,,,0.00,Rainwise IP-100,2014-03-02 18:28:00,
2014-03-02 10:33:00,55.0,50.0,30.09,SSE,157,4.0,7.0,81,0.00,,,0.00,Rainwise IP-100,2014-03-02 18:33:00,
2014-03-02 10:38:00,55.0,49.0,30.09,SSE,157,0.0,6.0,80,0.00,,,0.00,Rainwise IP-100,2014-03-02 18:38:00,
2014-03-02 10:43:00,55.0,49.0,30.09,SE,135,5.0,5.0,80,0.00,,,0.00,Rainwise IP-100,2014-03-02 18:43:00,
2014-03-02 10:48:00,56.0,49.0,30.09,SE,135,0.0,8.0,78,0.00,,,0.00,Rainwise IP-100,2014-03-02 18:48:00,
2014-03-02 10:53:00,56.0,49.0,30.09,ESE,112,3.0,6.0,77,0.00,,,0.00,Rainwise IP-100,2014-03-02 18:53:00,
2014-03-02 10:58:00,56.0,49.0,30.09,SW,225,6.0,7.0,77,0.00,,,0.00,Rainwise IP-100,2014-03-02 18:58:00,
2014-03-02 11:03:00,55.0,47.0,30.10,SSW,202,2.0,6.0,76,0.00,,,0.00,Rainwise IP-100,2014-03-02 19:03:00,
2014-03-02 11:08:00,55.0,47.0,30.09,SW,225,2.0,5.0,76,0.00,,,0.00,Rainwise IP-100,2014-03-02 19:08:00,
2014-03-02 11:13:00,56.0,48.0,30.10,ESE,112,4.0,4.0,76,0.00,,,0.00,Rainwise IP-100,2014-03-02 19:13:00,
2014-03-02 11:18:00,56.0,48.0,30.09,WSW,247,2.0,4.0,75,0.00,,,0.00,Rainwise IP-100,2014-03-02 19:18:00,
2014-03-02 11:23:00,55.0,47.0,30.09,West,270,1.0,4.0,75,0.00,,,0.00,Rainwise IP-100,2014-03-02 19:23:00,
2014-03-02 11:28:00,56.0,47.0,30.09,WSW,247,2.0,3.0,74,0.00,,,0.00,Rainwise IP-100,2014-03-02 19:28:00,
2014-03-02 11:33:00,56.0,47.0,30.09,WSW,247,3.0,6.0,73,0.00,,,0.00,Rainwise IP-100,2014-03-02 19:33:00,
2014-03-02 11:38:00,56.0,47.0,30.09,SW,225,2.0,6.0,72,0.00,,,0.00,Rainwise IP-100,2014-03-02 19:38:00,
2014-03-02 11:43:00,56.0,47.0,30.09,WSW,247,4.0,4.0,73,0.00,,,0.00,Rainwise IP-100,2014-03-02 19:43:00,
2014-03-02 11:48:00,56.0,47.0,30.09,WNW,292,2.0,4.0,73,0.00,,,0.00,Rainwise IP-100,2014-03-02 19:48:00,
2014-03-02 11:53:00,56.0,47.0,30.09,WSW,247,4.0,4.0,74,0.00,,,0.00,Rainwise IP-100,2014-03-02 19:53:00,
2014-03-02 11:58:00,55.0,47.0,30.10,West,270,2.0,5.0,74,0.00,,,0.00,Rainwise IP-100,2014-03-02 19:58:00,
2014-03-02 12:03:00,55.0,47.0,30.10,WSW,247,3.0,7.0,75,0.00,,,0.00,Rainwise IP-100,2014-03-02 20:03:00,
2014-03-02 12:08:00,54.0,47.0,30.10,WSW,247,9.0,11.0,78,0.00,,,0.00,Rainwise IP-100,2014-03-02 20:08:00,
2014-03-02 12:13:00,52.0,47.0,30.10,WSW,247,6.0,9.0,83,0.00,,,0.00,Rainwise IP-100,2014-03-02 20:13:00,
2014-03-02 12:18:00,52.0,48.0,30.10,WSW,247,3.0,6.0,86,0.00,,,0.00,Rainwise IP-100,2014-03-02 20:18:00,
2014-03-02 12:23:00,52.0,49.0,30.09,WSW,247,2.0,5.0,89,0.00,,,0.00,Rainwise IP-100,2014-03-02 20:23:00,
2014-03-02 12:28:00,52.0,49.0,30.09,West,270,4.0,6.0,91,0.00,,,0.00,Rainwise IP-100,2014-03-02 20:28:00,
2014-03-02 12:33:00,52.0,50.0,30.09,SW,225,1.0,5.0,92,0.00,,,0.00,Rainwise IP-100,2014-03-02 20:33:00,
2014-03-02 12:38:00,52.0,50.0,30.09,WSW,247,3.0,4.0,92,0.00,,,0.00,Rainwise IP-100,2014-03-02 20:38:00,
2014-03-02 12:43:00,51.0,49.0,30.09,WNW,292,2.0,3.0,93,0.00,,,0.00,Rainwise IP-100,2014-03-02 20:43:00,
2014-03-02 12:48:00,51.0,49.0,30.08,WNW,292,3.0,4.0,93,0.00,,,0.00,Rainwise IP-100,2014-03-02 20:48:00,
2014-03-02 12:53:00,52.0,50.0,30.07,NNW,337,1.0,3.0,93,0.00,,,0.00,Rainwise IP-100,2014-03-02 20:53:00,
2014-03-02 12:58:00,52.0,50.0,30.07,NW,315,3.0,3.0,92,0.00,,,0.00,Rainwise IP-100,2014-03-02 20:58:00,
2014-03-02 13:03:00,53.0,50.0,30.07,WNW,292,2.0,4.0,91,0.00,,,0.00,Rainwise IP-100,2014-03-02 21:03:00,
2014-03-02 13:08:00,53.0,50.0,30.07,WSW,247,1.0,4.0,90,0.00,,,0.00,Rainwise IP-100,2014-03-02 21:08:00,
2014-03-02 13:13:00,53.0,50.0,30.07,WNW,292,1.0,3.0,90,0.00,,,0.00,Rainwise IP-100,2014-03-02 21:13:00,
2014-03-02 13:18:00,54.0,50.0,30.07,WNW,292,2.0,5.0,89,0.00,,,0.00,Rainwise IP-100,2014-03-02 21:18:00,
2014-03-02 13:23:00,54.0,50.0,30.06,NNW,337,4.0,4.0,88,0.00,,,0.00,Rainwise IP-100,2014-03-02 21:23:00,
2014-03-02 13:28:00,54.0,50.0,30.07,NNW,337,2.0,4.0,88,0.00,,,0.00,Rainwise IP-100,2014-03-02 21:28:00,
2014-03-02 13:33:00,55.0,51.0,30.07,WSW,247,4.0,5.0,87,0.00,,,0.00,Rainwise IP-100,2014-03-02 21:33:00,
2014-03-02 13:38:00,54.0,50.0,30.06,NNW,337,3.0,5.0,86,0.00,,,0.00,Rainwise IP-100,2014-03-02 21:38:00,
2014-03-02 13:43:00,54.0,50.0,30.07,WSW,247,2.0,4.0,86,0.00,,,0.00,Rainwise IP-100,2014-03-02 21:43:00,
2014-03-02 13:48:00,54.0,50.0,30.06,West,270,1.0,5.0,86,0.00,,,0.00,Rainwise IP-100,2014-03-02 21:48:00,
2014-03-02 13:53:00,54.0,50.0,30.06,WSW,247,6.0,6.0,86,0.00,,,0.00,Rainwise IP-100,2014-03-02 21:53:00,
2014-03-02 13:58:00,53.0,48.0,30.06,NW,315,3.0,6.0,86,0.00,,,0.00,Rainwise IP-100,2014-03-02 21:58:00,
2014-03-02 14:03:00,53.0,49.0,30.06,WNW,292,2.0,5.0,87,0.00,,,0.00,Rainwise IP-100,2014-03-02 22:03:00,
2014-03-02 14:08:00,53.0,49.0,30.06,WSW,247,3.0,8.0,88,0.00,,,0.00,Rainwise IP-100,2014-03-02 22:08:00,
2014-03-02 14:13:00,53.0,50.0,30.07,WSW,247,4.0,8.0,89,0.00,,,0.00,Rainwise IP-100,2014-03-02 22:13:00,
2014-03-02 14:18:00,53.0,50.0,30.07,WSW,247,3.0,6.0,89,0.00,,,0.00,Rainwise IP-100,2014-03-02 22:18:00,
2014-03-02 14:23:00,53.0,50.0,30.07,WNW,292,2.0,4.0,89,0.00,,,0.00,Rainwise IP-100,2014-03-02 22:23:00,
2014-03-02 14:28:00,53.0,50.0,30.07,NNW,337,0.0,4.0,90,0.00,,,0.00,Rainwise IP-100,2014-03-02 22:28:00,
2014-03-02 14:33:00,53.0,50.0,30.07,WSW,247,2.0,5.0,90,0.00,,,0.00,Rainwise IP-100,2014-03-02 22:33:00,
2014-03-02 14:38:00,53.0,50.0,30.07,WSW,247,2.0,7.0,89,0.00,,,0.00,Rainwise IP-100,2014-03-02 22:38:00,
2014-03-02 14:43:00,53.0,49.0,30.07,NW,315,2.0,5.0,87,0.00,,,0.00,Rainwise IP-100,2014-03-02 22:43:00,
2014-03-02 14:48:00,53.0,48.0,30.07,WSW,247,3.0,6.0,86,0.00,,,0.00,Rainwise IP-100,2014-03-02 22:48:00,
2014-03-02 14:53:00,53.0,48.0,30.07,WNW,292,2.0,8.0,86,0.00,,,0.00,Rainwise IP-100,2014-03-02 22:53:00,
2014-03-02 14:58:00,53.0,48.0,30.07,WNW,292,4.0,5.0,85,0.00,,,0.00,Rainwise IP-100,2014-03-02 22:58:00,
2014-03-02 15:03:00,53.0,48.0,30.07,WSW,247,4.0,6.0,86,0.00,,,0.00,Rainwise IP-100,2014-03-02 23:03:00,
2014-03-02 15:08:00,53.0,48.0,30.07,WSW,247,2.0,6.0,86,0.00,,,0.00,Rainwise IP-100,2014-03-02 23:08:00,
2014-03-02 15:13:00,53.0,48.0,30.07,WSW,247,4.0,5.0,86,0.00,,,0.00,Rainwise IP-100,2014-03-02 23:13:00,
2014-03-02 15:18:00,53.0,48.0,30.07,WSW,247,3.0,5.0,86,0.00,,,0.00,Rainwise IP-100,2014-03-02 23:18:00,
2014-03-02 15:23:00,53.0,48.0,30.07,WNW,292,0.0,5.0,86,0.00,,,0.00,Rainwise IP-100,2014-03-02 23:23:00,
2014-03-02 15:28:00,53.0,49.0,30.07,WSW,247,3.0,6.0,87,0.00,,,0.00,Rainwise IP-100,2014-03-02 23:28:00,
2014-03-02 15:33:00,53.0,49.0,30.07,WNW,292,3.0,6.0,87,0.00,,,0.00,Rainwise IP-100,2014-03-02 23:33:00,
2014-03-02 15:38:00,53.0,48.0,30.07,NW,315,2.0,5.0,86,0.00,,,0.00,Rainwise IP-100,2014-03-02 23:38:00,
2014-03-02 15:43:00,53.0,48.0,30.07,WNW,292,3.0,4.0,86,0.00,,,0.00,Rainwise IP-100,2014-03-02 23:43:00,
2014-03-02 15:48:00,53.0,48.0,30.07,WSW,247,3.0,5.0,86,0.00,,,0.00,Rainwise IP-100,2014-03-02 23:48:00,
2014-03-02 15:53:00,53.0,48.0,30.07,WSW,247,4.0,7.0,86,0.00,,,0.00,Rainwise IP-100,2014-03-02 23:53:00,
2014-03-02 15:58:00,53.0,48.0,30.08,WNW,292,5.0,5.0,86,0.00,,,0.00,Rainwise IP-100,2014-03-02 23:58:00,
2014-03-02 16:03:00,53.0,48.0,30.07,NNW,337,3.0,7.0,86,0.00,,,0.00,Rainwise IP-100,2014-03-03 00:03:00,
2014-03-02 16:08:00,53.0,48.0,30.08,NW,315,0.0,4.0,85,0.00,,,0.00,Rainwise IP-100,2014-03-03 00:08:00,
2014-03-02 16:13:00,54.0,50.0,30.08,WNW,292,4.0,4.0,85,0.00,,,0.00,Rainwise IP-100,2014-03-03 00:13:00,
2014-03-02 16:18:00,54.0,50.0,30.09,WNW,292,0.0,4.0,86,0.00,,,0.00,Rainwise IP-100,2014-03-03 00:18:00,
2014-03-02 16:23:00,54.0,50.0,30.08,NW,315,2.0,5.0,86,0.00,,,0.00,Rainwise IP-100,2014-03-03 00:23:00,
2014-03-02 16:28:00,54.0,50.0,30.08,WSW,247,2.0,5.0,85,0.00,,,0.00,Rainwise IP-100,2014-03-03 00:28:00,
2014-03-02 16:33:00,53.0,48.0,30.09,WNW,292,1.0,6.0,85,0.00,,,0.00,Rainwise IP-100,2014-03-03 00:33:00,
2014-03-02 16:38:00,53.0,48.0,30.08,WNW,292,0.0,7.0,85,0.00,,,0.00,Rainwise IP-100,2014-03-03 00:38:00,
2014-03-02 16:43:00,53.0,48.0,30.09,WNW,292,0.0,6.0,85,0.00,,,0.00,Rainwise IP-100,2014-03-03 00:43:00,
2014-03-02 16:48:00,53.0,48.0,30.08,WNW,292,2.0,4.0,85,0.00,,,0.00,Rainwise IP-100,2014-03-03 00:48:00,
2014-03-02 16:53:00,53.0,48.0,30.08,WSW,247,4.0,5.0,85,0.00,,,0.00,Rainwise IP-100,2014-03-03 00:53:00,
2014-03-02 16:58:00,53.0,48.0,30.08,WSW,247,2.0,5.0,84,0.00,,,0.00,Rainwise IP-100,2014-03-03 00:58:00,
2014-03-02 17:03:00,53.0,48.0,30.09,WSW,247,3.0,5.0,84,0.00,,,0.00,Rainwise IP-100,2014-03-03 01:03:00,
2014-03-02 17:08:00,53.0,48.0,30.09,WSW,247,3.0,4.0,84,0.00,,,0.00,Rainwise IP-100,2014-03-03 01:08:00,
2014-03-02 17:13:00,53.0,48.0,30.09,WSW,247,0.0,5.0,85,0.00,,,0.00,Rainwise IP-100,2014-03-03 01:13:00,
2014-03-02 17:18:00,53.0,48.0,30.08,WSW,247,1.0,2.0,85,0.00,,,0.00,Rainwise IP-100,2014-03-03 01:18:00,
2014-03-02 17:23:00,53.0,48.0,30.09,WSW,247,2.0,2.0,85,0.00,,,0.00,Rainwise IP-100,2014-03-03 01:23:00,
2014-03-02 17:28:00,53.0,48.0,30.09,WSW,247,0.0,3.0,85,0.00,,,0.00,Rainwise IP-100,2014-03-03 01:28:00,
2014-03-02 17:33:00,52.0,47.0,30.08,WSW,247,0.0,0.0,85,0.00,,,0.00,Rainwise IP-100,2014-03-03 01:33:00,
2014-03-02 17:38:00,52.0,48.0,30.09,WSW,247,0.0,0.0,86,0.00,,,0.00,Rainwise IP-100,2014-03-03 01:38:00,
2014-03-02 17:43:00,52.0,48.0,30.09,WSW,247,0.0,0.0,86,0.00,,,0.00,Rainwise IP-100,2014-03-03 01:43:00,
2014-03-02 17:48:00,52.0,48.0,30.09,WSW,247,0.0,0.0,87,0.00,,,0.00,Rainwise IP-100,2014-03-03 01:48:00,
2014-03-02 17:53:00,52.0,48.0,30.09,WSW,247,2.0,2.0,87,0.00,,,0.00,Rainwise IP-100,2014-03-03 01:53:00,
2014-03-02 17:58:00,52.0,48.0,30.09,WSW,247,2.0,2.0,87,0.00,,,0.00,Rainwise IP-100,2014-03-03 01:58:00,
2014-03-02 18:03:00,52.0,48.0,30.09,WSW,247,0.0,2.0,87,0.00,,,0.00,Rainwise IP-100,2014-03-03 02:03:00,
2014-03-02 18:08:00,52.0,48.0,30.09,WSW,247,0.0,1.0,86,0.00,,,0.00,Rainwise IP-100,2014-03-03 02:08:00,
2014-03-02 18:13:00,52.0,48.0,30.09,WSW,247,0.0,1.0,86,0.00,,,0.00,Rainwise IP-100,2014-03-03 02:13:00,
2014-03-02 18:18:00,52.0,48.0,30.09,WSW,247,2.0,2.0,87,0.00,,,0.00,Rainwise IP-100,2014-03-03 02:18:00,
2014-03-02 18:23:00,52.0,48.0,30.09,WSW,247,0.0,3.0,87,0.00,,,0.00,Rainwise IP-100,2014-03-03 02:23:00,
2014-03-02 18:28:00,52.0,48.0,30.09,WSW,247,0.0,1.0,87,0.00,,,0.00,Rainwise IP-100,2014-03-03 02:28:00,
2014-03-02 18:33:00,52.0,48.0,30.09,WSW,247,0.0,0.0,87,0.00,,,0.00,Rainwise IP-100,2014-03-03 02:33:00,
2014-03-02 18:38:00,52.0,48.0,30.09,WSW,247,0.0,0.0,87,0.00,,,0.00,Rainwise IP-100,2014-03-03 02:38:00,
2014-03-02 18:43:00,52.0,48.0,30.09,WSW,247,0.0,1.0,87,0.00,,,0.00,Rainwise IP-100,2014-03-03 02:43:00,
2014-03-02 18:48:00,52.0,48.0,30.09,WSW,247,0.0,1.0,87,0.00,,,0.00,Rainwise IP-100,2014-03-03 02:48:00,
2014-03-02 18:53:00,51.0,47.0,30.09,WSW,247,1.0,1.0,87,0.00,,,0.00,Rainwise IP-100,2014-03-03 02:53:00,
2014-03-02 18:58:00,51.0,47.0,30.09,WSW,247,0.0,1.0,87,0.00,,,0.00,Rainwise IP-100,2014-03-03 02:58:00,
2014-03-02 19:03:00,51.0,47.0,30.09,WSW,247,0.0,0.0,87,0.00,,,0.00,Rainwise IP-100,2014-03-03 03:03:00,
2014-03-02 19:08:00,51.0,47.0,30.10,WSW,247,0.0,0.0,88,0.00,,,0.00,Rainwise IP-100,2014-03-03 03:08:00,
2014-03-02 19:13:00,51.0,47.0,30.10,WSW,247,0.0,0.0,88,0.00,,,0.00,Rainwise IP-100,2014-03-03 03:13:00,
2014-03-02 19:18:00,51.0,48.0,30.10,WSW,247,0.0,0.0,89,0.00,,,0.00,Rainwise IP-100,2014-03-03 03:18:00,
2014-03-02 19:23:00,51.0,48.0,30.10,WSW,247,0.0,0.0,90,0.00,,,0.00,Rainwise IP-100,2014-03-03 03:23:00,
2014-03-02 19:28:00,51.0,49.0,30.10,WSW,247,0.0,1.0,91,0.00,,,0.00,Rainwise IP-100,2014-03-03 03:28:00,
2014-03-02 19:33:00,51.0,49.0,30.10,WSW,247,0.0,0.0,91,0.00,,,0.00,Rainwise IP-100,2014-03-03 03:33:00,
2014-03-02 19:38:00,50.0,47.0,30.10,WSW,247,0.0,0.0,91,0.00,,,0.00,Rainwise IP-100,2014-03-03 03:38:00,
2014-03-02 19:43:00,50.0,47.0,30.10,South,180,0.0,1.0,91,0.00,,,0.00,Rainwise IP-100,2014-03-03 03:43:00,
2014-03-02 19:48:00,50.0,47.0,30.10,South,180,0.0,2.0,92,0.00,,,0.00,Rainwise IP-100,2014-03-03 03:48:00,
2014-03-02 19:53:00,50.0,47.0,30.10,South,180,0.0,1.0,92,0.00,,,0.00,Rainwise IP-100,2014-03-03 03:53:00,
2014-03-02 19:58:00,50.0,47.0,30.11,South,180,2.0,2.0,93,0.00,,,0.00,Rainwise IP-100,2014-03-03 03:58:00,
2014-03-02 20:03:00,49.0,47.0,30.11,SSE,157,2.0,3.0,93,0.00,,,0.00,Rainwise IP-100,2014-03-03 04:03:00,
2014-03-02 20:08:00,49.0,47.0,30.11,SSE,157,1.0,2.0,93,0.00,,,0.00,Rainwise IP-100,2014-03-03 04:08:00,
2014-03-02 20:13:00,50.0,47.0,30.11,SSE,157,0.0,2.0,93,0.00,,,0.00,Rainwise IP-100,2014-03-03 04:13:00,
2014-03-02 20:18:00,49.0,47.0,30.11,SSE,157,2.0,2.0,93,0.00,,,0.00,Rainwise IP-100,2014-03-03 04:18:00,
2014-03-02 20:23:00,49.0,47.0,30.10,SSE,157,0.0,2.0,94,0.00,,,0.00,Rainwise IP-100,2014-03-03 04:23:00,
2014-03-02 20:28:00,49.0,47.0,30.11,SSE,157,2.0,2.0,94,0.00,,,0.00,Rainwise IP-100,2014-03-03 04:28:00,
2014-03-02 20:33:00,50.0,48.0,30.11,SSE,157,0.0,3.0,95,0.00,,,0.00,Rainwise IP-100,2014-03-03 04:33:00,
2014-03-02 20:38:00,50.0,49.0,30.11,SSE,157,0.0,2.0,96,0.00,,,0.00,Rainwise IP-100,2014-03-03 04:38:00,
2014-03-02 20:43:00,50.0,49.0,30.11,SSE,157,1.0,2.0,96,0.00,,,0.00,Rainwise IP-100,2014-03-03 04:43:00,
2014-03-02 20:48:00,50.0,49.0,30.10,SSE,157,0.0,2.0,96,0.00,,,0.00,Rainwise IP-100,2014-03-03 04:48:00,
2014-03-02 20:53:00,50.0,49.0,30.10,SSE,157,0.0,1.0,96,0.00,,,0.00,Rainwise IP-100,2014-03-03 04:53:00,
2014-03-02 20:58:00,50.0,49.0,30.10,SSE,157,0.0,1.0,96,0.00,,,0.00,Rainwise IP-100,2014-03-03 04:58:00,
2014-03-02 21:01:00,50.0,48.0,30.10,SSE,157,0.0,1.0,95,0.00,,,0.00,Rainwise IP-100,2014-03-03 05:01:00,
2014-03-02 21:02:00,50.0,48.0,30.10,SSE,157,0.0,1.0,95,0.00,,,0.00,Rainwise IP-100,2014-03-03 05:02:00,
2014-03-02 21:07:00,50.0,48.0,30.10,SSE,157,0.0,1.0,95,0.00,,,0.00,Rainwise IP-100,2014-03-03 05:07:00,
2014-03-02 21:12:00,50.0,48.0,30.10,SSE,157,0.0,1.0,95,0.00,,,0.00,Rainwise IP-100,2014-03-03 05:12:00,
2014-03-02 21:17:00,50.0,48.0,30.10,SSE,157,0.0,0.0,95,0.00,,,0.00,Rainwise IP-100,2014-03-03 05:17:00,
2014-03-02 21:22:00,50.0,48.0,30.10,SSE,157,0.0,0.0,95,0.00,,,0.00,Rainwise IP-100,2014-03-03 05:22:00,
2014-03-02 21:27:00,50.0,48.0,30.10,SSE,157,0.0,0.0,95,0.00,,,0.00,Rainwise IP-100,2014-03-03 05:27:00,
2014-03-02 21:32:00,50.0,48.0,30.10,SSE,157,0.0,0.0,95,0.00,,,0.00,Rainwise IP-100,2014-03-03 05:32:00,
2014-03-02 21:37:00,50.0,48.0,30.10,SSE,157,0.0,2.0,95,0.00,,,0.00,Rainwise IP-100,2014-03-03 05:37:00,
2014-03-02 21:42:00,50.0,48.0,30.10,SSE,157,1.0,2.0,95,0.00,,,0.00,Rainwise IP-100,2014-03-03 05:42:00,
2014-03-02 21:47:00,50.0,49.0,30.09,SSE,157,1.0,3.0,96,0.00,,,0.00,Rainwise IP-100,2014-03-03 05:47:00,
2014-03-02 21:52:00,50.0,49.0,30.09,SSE,157,1.0,3.0,96,0.00,,,0.00,Rainwise IP-100,2014-03-03 05:52:00,
2014-03-02 21:57:00,50.0,49.0,30.09,SSE,157,0.0,2.0,96,0.00,,,0.00,Rainwise IP-100,2014-03-03 05:57:00,
2014-03-02 22:02:00,50.0,49.0,30.09,SSE,157,1.0,2.0,96,0.00,,,0.00,Rainwise IP-100,2014-03-03 06:02:00,
2014-03-02 22:07:00,49.0,48.0,30.09,SSE,157,1.0,2.0,96,0.00,,,0.00,Rainwise IP-100,2014-03-03 06:07:00,
2014-03-02 22:12:00,49.0,48.0,30.09,SSE,157,0.0,1.0,96,0.00,,,0.00,Rainwise IP-100,2014-03-03 06:12:00,
2014-03-02 22:17:00,49.0,48.0,30.09,SSE,157,0.0,1.0,96,0.00,,,0.00,Rainwise IP-100,2014-03-03 06:17:00,
2014-03-02 22:22:00,49.0,48.0,30.09,SSE,157,0.0,1.0,96,0.00,,,0.00,Rainwise IP-100,2014-03-03 06:22:00,
2014-03-02 22:27:00,49.0,48.0,30.09,SSE,157,0.0,1.0,96,0.00,,,0.00,Rainwise IP-100,2014-03-03 06:27:00,
2014-03-02 22:32:00,49.0,48.0,30.09,SSE,157,1.0,2.0,96,0.00,,,0.00,Rainwise IP-100,2014-03-03 06:32:00,
2014-03-02 22:37:00,49.0,48.0,30.08,SSE,157,0.0,2.0,96,0.00,,,0.00,Rainwise IP-100,2014-03-03 06:37:00,
2014-03-02 22:42:00,49.0,48.0,30.09,SSE,157,0.0,1.0,96,0.00,,,0.00,Rainwise IP-100,2014-03-03 06:42:00,
2014-03-02 22:47:00,49.0,48.0,30.09,SSE,157,0.0,1.0,96,0.00,,,0.00,Rainwise IP-100,2014-03-03 06:47:00,
2014-03-02 22:52:00,49.0,48.0,30.08,SSE,157,0.0,0.0,96,0.00,,,0.00,Rainwise IP-100,2014-03-03 06:52:00,
2014-03-02 22:57:00,49.0,48.0,30.08,SSE,157,0.0,1.0,96,0.00,,,0.00,Rainwise IP-100,2014-03-03 06:57:00,
2014-03-02 23:02:00,49.0,48.0,30.08,SSW,202,2.0,2.0,96,0.00,,,0.00,Rainwise IP-100,2014-03-03 07:02:00,
2014-03-02 23:07:00,49.0,48.0,30.08,SSW,202,3.0,3.0,96,0.00,,,0.00,Rainwise IP-100,2014-03-03 07:07:00,
2014-03-02 23:12:00,49.0,48.0,30.08,SSW,202,3.0,4.0,97,0.00,,,0.00,Rainwise IP-100,2014-03-03 07:12:00,
2014-03-02 23:17:00,49.0,48.0,30.08,SSW,202,4.0,4.0,96,0.00,,,0.00,Rainwise IP-100,2014-03-03 07:17:00,
2014-03-02 23:22:00,50.0,49.0,30.08,WSW,247,1.0,4.0,96,0.00,,,0.00,Rainwise IP-100,2014-03-03 07:22:00,
2014-03-02 23:27:00,50.0,49.0,30.08,SW,225,3.0,4.0,96,0.00,,,0.00,Rainwise IP-100,2014-03-03 07:27:00,
2014-03-02 23:32:00,50.0,49.0,30.08,WSW,247,0.0,3.0,96,0.00,,,0.00,Rainwise IP-100,2014-03-03 07:32:00,
2014-03-02 23:37:00,50.0,49.0,30.07,WSW,247,0.0,2.0,96,0.00,,,0.00,Rainwise IP-100,2014-03-03 07:37:00,
2014-03-02 23:42:00,50.0,49.0,30.07,WSW,247,0.0,1.0,96,0.00,,,0.00,Rainwise IP-100,2014-03-03 07:42:00,
2014-03-02 23:47:00,49.0,47.0,30.07,WSW,247,0.0,0.0,95,0.00,,,0.00,Rainwise IP-100,2014-03-03 07:47:00,
2014-03-02 23:52:00,49.0,47.0,30.07,WSW,247,0.0,0.0,95,0.00,,,0.00,Rainwise IP-100,2014-03-03 07:52:00,
2014-03-02 23:57:00,49.0,47.0,30.07,WSW,247,0.0,0.0,95,0.00,,,0.00,Rainwise IP-100,2014-03-03 07:57:00,